Location: Squirrel Cove
(50.1074°N, 124.9139°W)
Time: 14:14:06
(UTC-07:00)

PCSat - Pass Details

Date: 26 May 2022
Orbit: 784 x 795 km, 67.1° (Epoch: 26 June)

Event Time Altitude Azimuth Distance (km) Brightness Sun altitude
Rises 03:50:10 0° 317° (NW) 3,306 12.9 -11.1°
Reaches altitude 10° 03:52:52 10° 306° (NW) 2,372 12.0 -10.8°
Maximum altitude 03:57:26 28° 249° (WSW) 1,452 10.5 -10.4°
Drops below altitude 10° 04:01:58 10° 192° (SSW) 2,355 11.5 -9.9°
Enters shadow 04:02:19 - 190° (S) 2,466 11.6 -9.9°
